Weather Roundup
Issued by NWS

Home | Current Version | Previous Version | Text Only | Print | Product List | Glossary On
Versions: 1 2 3 4 5 6 7 8 9 10 11 12 13 14 15 16 17 18 19 20 21 22 23 24 25 26 27 28 29 30 31 32 33 34 35 36 37 38 39 40 41 42 43 44 45 46 47 48 49 50
202
NZUS93 KARX 272310
HRRWXR

CURRENT HOURLY OBSERVATIONS ACROSS
MUCH OF THE UPPER MISSISSIPPI VALLEY
NATIONAL WEATHER SERVICE LA CROSSE WI
500 PM CST MON FEB 27 2017


...SOUTHEAST MINNESOTA...


CITY           SKY/WX    TMP DP  RH WIND       PRES   REMARKS
ROCHESTER      CLEAR     37  30  75 S13       29.92F WCI  29
ROCHESTER/MAYO CLOUDY    41  28  60 SE7       29.92F
WINONA         CLEAR     43  27  52 SE6       29.96F
AUSTIN         PTCLDY    36  28  75 E7        29.90F WCI  30
ALBERT LEA     MOCLDY    37  30  75 SE10      29.88F WCI  30
DODGE CENTER   NOT AVBL
PRESTON        CLEAR     40  29  66 SE7       29.94S WCI  35
OWATONNA       CLOUDY    39  27  60 SE12      29.89F WCI  32
FARIBAULT      CLOUDY    39  27  60 SE8       29.90S WCI  34
$$

...ELSEWHERE IN MINNESOTA...


CITY           SKY/WX    TMP DP  RH WIND       PRES   REMARKS
MINNEAPOLIS    MOCLDY    42  23  46 SE13      29.89F
INTNL FALLS    MOCLDY    29   7  39 CALM      29.86F
DULUTH         CLOUDY    29  23  78 E7        29.86F WCI  22
RED WING       MOCLDY    43  19  39 S8        29.92F
REDWOOD FALLS  SUNNY     46  23  40 S15       29.80F
MANKATO          N/A     37  27  67 SE12      29.87F WCI  29
WORTHINGTON    SUNNY     40  29  64 SE12      29.79F WCI  33
FAIRMONT       CLOUDY    35  29  78 SE12      29.84F WCI  27
$$

...SOUTHWEST WISCONSIN...


CITY           SKY/WX    TMP DP  RH WIND       PRES   REMARKS
LA CROSSE      CLEAR     47  31  53 S9        29.97S
PRAIRIE DU CHI PTCLDY    49  32  52 SE7       29.98S
BOSCOBEL       PTCLDY    50  33  52 S6        29.99F
LONE ROCK      MOCLDY    48  33  56 S8        30.01R
PLATTEVILLE    PTCLDY    47  34  61 S8        30.00S
FORT MC COY    CLEAR     45  30  56 S8        30.00R
CAMP DOUGLAS   MOCLDY    45  30  57 S5        29.99S
MAUSTON-NEW LI CLEAR     44  32  61 S3        29.99S
VIROQUA        FAIR      43  32  65 S7        29.98R
WIS DELLS      MOCLDY    43  31  61 SW7       30.00S
$$

...ELSEWHERE IN WISCONSIN...


CITY           SKY/WX    TMP DP  RH WIND       PRES   REMARKS
MILWAUKEE      MOCLDY    46  33  60 S10       30.06F
MADISON        MOCLDY    47  29  49 S9        30.01S
GREEN BAY      CLOUDY    37  32  82 SE7       30.06R WCI  32
EAU CLAIRE     CLOUDY    40  21  46 S9        29.94F WCI  34
BLACK RVR FLS  FAIR      46  21  37 S6        29.97S
MEDFORD        PTCLDY    35  19  53 S6        29.95F WCI  30
WAUSAU         CLEAR     39  19  44 S7        29.97F WCI  34
WIS RAPIDS     CLEAR     42  26  53 SW8       30.00S
MARSHFIELD     CLEAR     40  18  41 S10       29.96F WCI  33
RICE LAKE      CLOUDY    38  20  48 SE10      29.94S WCI  31
$$

...NORTHEAST IOWA...


CITY           SKY/WX    TMP DP  RH WIND       PRES   REMARKS
WATERLOO       CLOUDY    50  30  46 SE9       29.92F
DUBUQUE        CLOUDY    46  34  62 S9        29.99F
DECORAH        MOCLDY    45  32  61 SE5       29.94S
MASON CITY     CLOUDY    39  32  76 SE13      29.88F WCI  31
CHARLES CITY   CLOUDY    43  34  70 SE8       29.91F
OELWEIN        CLOUDY    46  34  61 S8        29.94F
$$

...ELSEWHERE IN IOWA...


CITY           SKY/WX    TMP DP  RH WIND       PRES   REMARKS
DES MOINES     CLOUDY    54  24  31 SE13      29.86F
IOWA CITY      CLOUDY    54  30  40 SE9       29.96F
FORT DODGE     CLOUDY    37  30  75 E8        29.85F WCI  31
MARSHALLTOWN   CLOUDY    50  29  44 SE14      29.88F
CEDAR RAPIDS   MOCLDY    52  28  39 SE7       29.93F
$$

...NORTHERN ILLINOIS...


CITY           SKY/WX    TMP DP  RH WIND       PRES   REMARKS
CHICAGO-OHARE  CLOUDY    51  32  48 S6        30.06F
CHICAGO-MIDWAY MOCLDY    54  31  41 S6        30.07S
MOLINE         CLOUDY    54  31  41 S9        29.98F
ROCKFORD       CLOUDY    50  33  52 S9        30.06S
PEORIA         PTCLDY    56  33  42 S8        30.02S
$$

NOTE: "FAIR" INDICATES FEW OR NO CLOUDS BELOW 12,000 FEET WITH NO
SIGNIFICANT WEATHER AND/OR OBSTRUCTIONS TO VISIBILITY. WIND
SPEEDS ARE IN MILES-PER-HOUR.




USA.gov is the U.S. government's official web portal to all federal, state and local government web resources and services.